Pearl, MS

6:37 PM CDT on August 28, 2016 (GMT -0500)
Jackson-Evers International

Weather History for KJAN - February, 2014

Change the Weather History Date:

Monday, February 3, 2014

  Actual Average Record
Temperature  
Mean Temperature 38 °F 47 °F  
Max Temperature 41 °F 58 °F 86 °F (1896)
Min Temperature 34 °F 36 °F 4 °F (1951)
Degree Days  
Heating Degree Days 27 18  
Month to date heating degree days 47 54  
Since 1 July heating degree days 1830 1606  
Cooling Degree Days 0 0  
Month to date cooling degree days 0 0  
Year to date cooling degree days 0 4  
Moisture  
Dew Point 35 °F    
Average Humidity 88    
Maximum Humidity 96    
Minimum Humidity 79    
Precipitation  
Precipitation 0.05 in 0.18 in 2.88 in (1936)
Month to date precipitation 1.55 0.54  
Year to date precipitation 3.16 5.51  
Sea Level Pressure  
Sea Level Pressure 30.17 in    
Wind  
Wind Speed 9 mph (North)    
Max Wind Speed 18 mph    
Max Gust Speed 25 mph    
Visibility 9 miles    
Events Rain    
T = Trace of Precipitation, MM = Missing Value Source: NWS Daily Summary

Daily Weather History Graph

Daily Weather History Graph

Search for Another Location

Airport or City:

Trip Planner

Search our weather history database for the weather conditions in past years. The results will help you decide how hot, cold, wet, or windy it might be!

Date:

Astronomy

Feb. 03, 2014 Rise Set
Actual Time 6:53 AM CST 5:35 PM CST
Civil Twilight 6:27 AM CST 6:01 PM CST
Nautical Twilight 5:58 AM CST 6:30 PM CST
Astronomical Twilight 5:29 AM CST 6:59 PM CST
Moon 9:12 AM CST (2/3) 10:06 PM CST (2/3)
Length of Visible Light 11h 33m
Length of Day
10h 42m
Waxing Crescent, 20% of the Moon is Illuminated
Feb 3
Waxing Crescent
Feb 6
First Quarter
Feb 14
Full
Feb 22
Last Quarter
Mar 1
New

Hourly Weather History & Observations

Time (CST) Temp. Windchill Dew Point Humidity Pressure Visibility Wind Dir Wind Speed Gust Speed Precip Events Conditions
12:54 AM 37.9 °F 31.5 °F 36.0 °F 93% 30.06 in 10.0 mi NW 9.2 mph - 0.05 in Rain Light Rain
1:22 AM 37.4 °F 29.8 °F 35.6 °F 93% 30.09 in 10.0 mi NW 11.5 mph 18.4 mph 0.00 in   Overcast
1:54 AM 37.0 °F 29.3 °F 34.0 °F 89% 30.09 in 10.0 mi NNW 11.5 mph 18.4 mph 0.00 in   Overcast
2:54 AM 36.0 °F 27.1 °F 33.1 °F 89% 30.12 in 10.0 mi NNW 13.8 mph - N/A   Overcast
3:54 AM 35.1 °F 25.5 °F 33.1 °F 92% 30.14 in 9.0 mi North 15.0 mph - N/A   Overcast
4:54 AM 35.1 °F 26.9 °F 33.1 °F 92% 30.15 in 10.0 mi North 11.5 mph - N/A   Overcast
5:54 AM 34.0 °F 25.5 °F 32.0 °F 92% 30.17 in 10.0 mi North 11.5 mph - N/A   Overcast
6:54 AM 34.0 °F 25.5 °F 32.0 °F 92% 30.19 in 10.0 mi North 11.5 mph - N/A   Overcast
7:54 AM 34.0 °F 26.6 °F 32.0 °F 92% 30.21 in 3.0 mi North 9.2 mph - N/A   Overcast
8:54 AM 34.0 °F 25.0 °F 32.0 °F 92% 30.23 in 5.0 mi North 12.7 mph - N/A   Overcast
9:35 AM 35.6 °F 28.0 °F 33.8 °F 93% 30.23 in 3.0 mi North 10.4 mph - N/A   Overcast
9:54 AM 36.0 °F 29.0 °F 34.0 °F 93% 30.24 in 3.0 mi North 9.2 mph - N/A   Overcast
10:05 AM 35.6 °F 27.5 °F 33.8 °F 93% 30.23 in 5.0 mi North 11.5 mph - N/A   Overcast
10:54 AM 37.0 °F 30.4 °F 35.1 °F 93% 30.23 in 5.0 mi North 9.2 mph - N/A   Overcast
11:54 AM 37.9 °F 32.1 °F 35.1 °F 89% 30.21 in 6.0 mi NNE 8.1 mph - N/A   Overcast
12:54 PM 39.0 °F 32.3 °F 36.0 °F 89% 30.18 in 10.0 mi North 10.4 mph - N/A   Overcast
1:54 PM 39.9 °F 35.1 °F 36.0 °F 86% 30.17 in 10.0 mi NNE 6.9 mph - N/A   Overcast
2:54 PM 39.9 °F 33.9 °F 36.0 °F 86% 30.17 in 10.0 mi North 9.2 mph - N/A   Overcast
3:54 PM 41.0 °F 36.4 °F 36.0 °F 82% 30.18 in 10.0 mi North 6.9 mph - N/A   Overcast
4:35 PM 41.0 °F 36.4 °F 37.4 °F 87% 30.17 in 10.0 mi North 6.9 mph - N/A   Overcast
4:54 PM 41.0 °F 35.8 °F 37.0 °F 86% 30.18 in 10.0 mi NNE 8.1 mph - N/A   Overcast
5:54 PM 41.0 °F 36.4 °F 37.0 °F 86% 30.18 in 10.0 mi North 6.9 mph - N/A   Overcast
6:54 PM 41.0 °F 35.2 °F 36.0 °F 82% 30.18 in 10.0 mi NE 9.2 mph - N/A   Overcast
7:54 PM 41.0 °F 35.8 °F 36.0 °F 82% 30.18 in 10.0 mi NNE 8.1 mph - N/A   Overcast
8:54 PM 39.9 °F 35.1 °F 36.0 °F 86% 30.19 in 10.0 mi East 6.9 mph - N/A   Overcast
9:25 PM 39.2 °F 35.0 °F 35.6 °F 87% 30.17 in 10.0 mi NE 5.8 mph 17.3 mph N/A   Overcast
9:54 PM 39.9 °F 35.8 °F 36.0 °F 86% 30.18 in 10.0 mi ENE 5.8 mph - N/A   Overcast
10:54 PM 39.0 °F 34.0 °F 36.0 °F 89% 30.16 in 10.0 mi NE 6.9 mph - N/A   Overcast
11:50 PM 39.2 °F - 35.6 °F 87% 30.12 in 10.0 mi Calm Calm - N/A   Overcast
11:54 PM 39.9 °F - 36.0 °F 86% 30.13 in 10.0 mi Calm Calm - N/A   Overcast